Weather History for Durango, Mexico

Change the Weather History Date:

Thursday, October 10, 2013

  Actual Average Record
Temperature  
Mean Temperature 66 °F -  
Max Temperature 80 °F 76 °F 91 °F (2014)
Min Temperature 51 °F 44 °F 41 °F (2010)
Growing Degree Days 16 (Base 50)    
Moisture  
Dew Point 49 °F    
Average Humidity 52    
Maximum Humidity 94    
Minimum Humidity 28    
Precipitation  
Precipitation 0.00 in - - ()
Sea Level Pressure  
Sea Level Pressure 29.99 in    
Wind  
Wind Speed 3 mph ()    
Max Wind Speed 9 mph    
Max Gust Speed -    
Visibility 12.1 miles    
Events      
Averages and records for this station are not official NWS values.
T = Trace of Precipitation, MM = Missing Value Source: Averaged Metar Reports

Daily Weather History Graph

Daily Weather History Graph

Search for Another Location

Airport:

Trip Planner

Search our weather history database for the weather conditions in past years. The results will help you decide how hot, cold, wet, or windy it might be!

Date:

Astronomy

Oct. 10, 2013 Rise Set
Actual Time 7:53 AM CDT 7:35 PM CDT
Civil Twilight 7:30 AM CDT 7:58 PM CDT
Nautical Twilight 7:04 AM CDT 8:25 PM CDT
Astronomical Twilight 6:38 AM CDT 8:51 PM CDT
Moon 1:24 PM CDT (10/10) No Moon Set
Length of Visible Light 12h 27m
Length of Day
11h 42m
Waxing Crescent, 36% of the Moon is Illuminated
Oct 10
Waxing Crescent
Oct 11
First Quarter
Oct 18
Full
Oct 26
Last Quarter
Nov 3
New

Hourly Weather History & Observations

Time (CDT) Temp. Dew Point Humidity Pressure Visibility Wind Dir Wind Speed Gust Speed Precip Events Conditions
12:56 AM 64 °F 53 °F 58% 29.75 in 6 mi SW 4.5 mph - -  
3:51 AM 59 °F 52 °F 71% 29.79 in 6 mi Calm Calm - -  
5:40 AM 55.4 °F 50.0 °F 82% 30.20 in 8.0 mi South 8.1 mph - N/A   Clear
6:42 AM 53.6 °F 50.0 °F 88% 29.82 in 8.0 mi South 4.6 mph - N/A   Clear
7:40 AM 51.8 °F 50.0 °F 94% 30.21 in 10.0 mi SSE 5.8 mph - N/A   Clear
8:44 AM 53.6 °F 50.0 °F 88% 30.23 in 10.0 mi Calm Calm - N/A   Clear
9:42 AM 60.8 °F 51.8 °F 72% 29.87 in 12.0 mi SSW 3.5 mph - N/A   Clear
9:45 AM 62 °F 51 °F 58% 29.92 in 19 mi SW 2.2 mph - -  
10:41 AM 66.2 °F 51.8 °F 60% 30.25 in 12.0 mi Calm Calm - N/A   Clear
11:43 AM 68.0 °F 50.0 °F 52% 30.25 in 12.0 mi South 4.6 mph - N/A   Clear
12:40 PM 75 °F 51 °F 33% 29.89 in 19 mi Calm Calm - -   Scattered Clouds
12:46 PM 73.4 °F 50.0 °F 44% 29.83 in 12.0 mi ESE 3.5 mph - N/A   Scattered Clouds
1:44 PM 73.4 °F 44.6 °F 36% 30.19 in 14.0 mi SE 4.6 mph - N/A   Partly Cloudy
2:49 PM 77.0 °F 48.2 °F 36% 30.15 in 14.0 mi SSW 8.1 mph - N/A   Mostly Cloudy
3:42 PM 78.8 °F 46.4 °F 32% 29.74 in 14.0 mi Calm Calm - N/A   Mostly Cloudy
3:45 PM 80 °F 52 °F 28% 29.75 in 25 mi SE 4.5 mph - -   Partly Cloudy
4:43 PM 78.8 °F 46.4 °F 32% 30.10 in 14.0 mi Calm Calm - N/A   Mostly Cloudy
5:41 PM 78.8 °F 46.4 °F 32% 30.09 in 14.0 mi ENE 3.5 mph - N/A   Mostly Cloudy
6:40 PM 77.0 °F 46.4 °F 34% 29.70 in 14.0 mi South 4.6 mph - N/A   Mostly Cloudy
7:44 PM 71.6 °F 37.4 °F 29% 30.10 in 14.0 mi SW 9.2 mph - N/A   Mostly Cloudy
9:50 PM 68 °F 49 °F 40% 29.69 in 6 mi West 2.2 mph - -   Clear
9:54 PM 64.4 °F 42.8 °F 45% 30.16 in 14.0 mi SW 9.2 mph - N/A   Mostly Cloudy
10:47 PM 64.4 °F 46.4 °F 52% 30.18 in 14.0 mi SW 9.2 mph - N/A   Mostly Cloudy